Regional Weather Roundup
Issued by NWS

Home | Current Version | Previous Version | Graphics & Text | Print | Product List | Glossary On
Versions: 1 2 3 4 5 6 7 8 9 10 11 12 13 14 15 16 17 18 19 20 21 22 23 24 25 26 27 28 29 30 31 32 33 34 35 36 37 38 39 40 41 42 43 44 45 46 47 48 49 50
000
ASUS45 KTFX 160119
RWRMT
MONTANA HOURLY WEATHER ROUNDUP
NATIONAL WEATHER SERVICE GREAT FALLS MT
719 PM MDT MON SEP 15 2014

NOTE: "FAIR" INDICATES FEW OR NO CLOUDS BELOW 12000 FEET WITH NO
SIGNIFICANT WEATHER AND/OR OBSTRUCTIONS TO VISIBILITY.

* THESE STATIONS ARE NOT UNDER NWS QUALITY CONTROL. THEY DO NOT
   REPORT WEATHER SUCH AS PRECIPITATION OR FOG.

MTZ001>007-043-160200-
WEST OF THE DIVIDE
CITY           SKY/WX    TMP DP  RH WIND       PRES   REMARKS
KALISPELL      PTCLDY    75  36  24 CALM      29.99F
MISSOULA       CLEAR     79  32  18 S3        29.99F
BUTTE          CLEAR     73  25  17 NW8       30.14R
MULLAN PASS    PTCLDY    66  27  23 CALM      30.15F
* LINCOLN      N/A       78  23  13 W6G13      N/A
* LOOKOUT PASS N/A       68  34  28 N2         N/A
* POLSON       N/A       71  29  21 S1         N/A
* RONAN APT    CLEAR     77  36  23 NW6        N/A
* SEELEY LAKE  N/A       79  24  13 NW5G13     N/A
* THOMP F APT  CLEAR     75  23  14 NW3G12     N/A
$$

MTZ008-052>055-160200-
SOUTHWEST MONTANA
CITY           SKY/WX    TMP DP  RH WIND       PRES   REMARKS
BOZEMAN        CLEAR     70  43  38 CALM      30.07F
DILLON         CLEAR     73  30  20 W10       30.10S
W YELLOWSTONE  PTCLDY    66  21  18 SW6       30.21S
* THREE FORKS  CLEAR     73  50  44 N/A        N/A
* BOULDER HILL N/A       65  24  21 S1         N/A
* MONIDA PASS  N/A       69  24  18 VRB9       N/A
* RAYNOLDS PAS N/A       72  62  71 SW6G12     N/A
* WHITEHALL    N/A       79  38  23 E4G9       N/A
* WISE RIVER   N/A       75  21  13 NW8G14     N/A
$$

MTZ009>010-012-014-046-048-049-054-160200-
EAST SLOPES AND CENTRAL MONTANA
CITY           SKY/WX    TMP DP  RH WIND       PRES   REMARKS
GREAT FALLS    CLEAR     70  43  38 NE8       30.01F
HELENA         CLEAR     75  37  25 SE6       30.02F
MALMSTROM AFB  CLEAR     70  41  35 NE8       30.03S
* CONRAD       CLEAR     75  41  30 E5         N/A
* EAST GLACIER N/A       67  31  26 W10G15     N/A
* MONARCH      N/A       68  24  19 NE4        N/A
* PENDROY      N/A       73  35  25 S4         N/A
* ROGERS PASS  N/A       62  28  28 NW2G7      N/A
* SAINT MARY   N/A       72  32  23 S6G15      N/A
* SWEET GRASS  N/A       73  40  30 S4         N/A
* WHITE SULPH  N/A       72  29  20 SW1G10     N/A
$$

MTZ011-013-016-021-035-040-045-047-050-051-160200-
NORTH CENTRAL MONTANA
CITY           SKY/WX    TMP DP  RH WIND       PRES   REMARKS
HAVRE          CLEAR     70  45  41 E6        30.00F
LEWISTOWN      CLEAR     72  43  35 CALM      30.06F
* CHINOOK      CLEAR     66  45  47 E7        30.00S
* FORT BENTON  CLEAR     73  39  29 CALM      30.01S
* CHESTER      N/A       72  38  29 S3         N/A
* DENTON       N/A       69  41  36 NE6        N/A
* GEYSER       N/A       68  39  35 NE7        N/A
* JUDITH GAP   N/A       67  40  37 SE6        N/A
* LOMA         N/A       74  40  29 N/A        N/A
$$

MTZ017>020-022>027-061-062-160200-
NORTHEAST MONTANA
CITY           SKY/WX    TMP DP  RH WIND       PRES   REMARKS
GLASGOW        CLEAR     63  39  41 E7        30.04S
GLENDIVE       CLEAR     63  37  38 CALM      30.08F
JORDAN         CLEAR     66  43  43 S3        30.04F
SIDNEY         CLEAR     59  36  42 CALM      30.07F
WOLF POINT     CLEAR     64  37  37 NW5       30.05S
* BEAVER HILL  N/A       64  36  35 W4         N/A
* CIRCLE       N/A       67  43  42 N/A        N/A
* LINDSAY DVD  N/A       62  38  41 SE3        N/A
* NAVAJO       N/A       62  33  34 W4         N/A
* SACO         N/A       69  39  34 E2         N/A
$$

MTZ028>042-056>058-160200-
SOUTHCENTRAL AND SOUTHEAST MONTANA
CITY           SKY/WX    TMP DP  RH WIND       PRES   REMARKS
BAKER          CLEAR     61  45  56 SE6       30.09F
BILLINGS       FAIR      70  45  41 NE5       30.06F
LIVINGSTON     CLEAR     73  28  19 S6        30.07S
MILES CITY     CLEAR     70  43  38 NE6       30.04F
* LAUREL APT   CLEAR     70  45  41 N/A        N/A
* ROUNDUP APT  CLEAR     68  41  38 N/A        N/A
* ALZADA       N/A       62  44  52 E9         N/A
* HYSHAM       N/A       70  34  27 VRB2       N/A
* LAME DEER    N/A       66  40  39 N/A        N/A
* REED POINT   N/A       65  41  42 N/A        N/A
* ROSCOE HILL  N/A       67  29  24 E4         N/A
$$

REGIONAL REPORTS...DAKOTAS
CITY           SKY/WX    TMP DP  RH WIND       PRES   REMARKS
WILLISTON      CLEAR     63  32  31 S3        30.06F
DICKINSON      CLEAR     57  39  51 S5        30.09F
BEACH          N/A       57  39  51 SE5       30.09S
CROSBY         CLEAR     50  39  66 SW7       30.06F
TIOGA          CLEAR     46  32  58 SW5       30.10F
WATFORD CITY   HAZE      55  36  49 S6        30.05F VSB 3
BISMARCK       CLEAR     61  39  44 S6        30.12F
GRAND FORKS    FAIR      54  43  67 SW7       30.07F
FARGO          CLEAR     54  39  57 SW8       30.13F
BUFFALO SD     CLEAR     61  43  52 SE10      30.05F
RAPID CITY     CLEAR     59  45  60 SE9       30.13F
$$

REGIONAL REPORTS...WYOMING/IDAHO/WASHINGTON
CITY           SKY/WX    TMP DP  RH WIND       PRES   REMARKS
GILLETTE       CLEAR     66  45  47 SE6       30.10S
SHERIDAN       CLEAR     64  52  65 NW3       30.08S
CODY           PTCLDY    64  45  50 CALM      30.13S
YELLOWSTONE LA CLEAR     63  28  27 W5        30.32S
SALMON         PTCLDY    72  43  35 S5        30.00S
MULLAN PASS    PTCLDY    66  27  23 CALM      30.15S
SAND POINT     PTCLDY    70  48  46 CALM      29.94F
SPOKANE        PTCLDY    81  30  16 NE8       29.93F
$$

REGIONAL REPORTS...ALBERTA
CITY           SKY/WX    TMP DP  RH WIND       PRES   REMARKS
CALGARY        N/A       68  46  45 E5        29.99F
LETHBRIDGE     N/A       68  48  49 E7        29.98S
MEDICINE HAT   N/A       72  43  35 SE6       29.95F
EDMONTON       FAIR      70  45  41 VRB2      29.94S
WATERTON GATE  N/A       66  39  37 SW7        N/A
CARDSTON       N/A       73  43  34 W3         N/A
MILK RIVER     N/A       68  45  44 E8         N/A
$$

REGIONAL REPORTS...SASKATCHEWAN
CITY           SKY/WX    TMP DP  RH WIND       PRES   REMARKS
SWIFT CURRENT  N/A       64  36  35 NE2       30.00F
REGINA         FAIR      59  41  51 NW6       30.02R
VAL MARIE      N/A       61  41  48 S6         N/A
ASSINIBOIA     N/A       61  36  39 N6         N/A
CORONACH       N/A       55  32  42 S7         N/A

$$



USA.gov is the U.S. government's official web portal to all federal, state and local government web resources and services.